Terminal Aerodrome Forecast
Issued by NWS

Home | Current Version | Previous Version | Text Only | Print | Product List | Glossary On
Versions: 1 2 3 4 5 6 7 8 9 10 11 12 13 14 15 16 17
000
FTUS43 KDVN 311100
TAFCID
TAF
KCID 311120Z 3112/0112 34017G26KT P6SM SKC
     FM311500 35021G29KT P6SM SKC
     FM312300 35012G17KT P6SM SKC
     FM010100 36006KT P6SM SKC=

USA.gov is the U.S. government's official web portal to all federal, state and local government web resources and services.